Wind_Speed
9 10 11 10 9 8 8 8 8 8 8 8 7 6 5 4 5 8 9 9 8 8 7 6 7 8 7 7 9 15 23 28 28 25 19 20 22 24 23 24 26 27 28 23 16
8 10 11 11 10 10 10 9 9 9 9 9 10 8 8 7 6 7 9 8 8 7 6 5 5 5 6 7 8 11 17 28 30 31 28 23 26 28 28 25 22 23 24 16 16
5 6 8 9 9 10 10 10 9 9 9 10 10 10 10 10 9 9 8 8 8 8 8 9 9 8 8 9 10 11 17 28 35 36 32 29 29 30 30 27 23 24 19 14 16
9 8 7 7 8 9 9 9 9 9 10 11 12 11 12 11 12 11 11 10 9 9 9 10 10 9 10 8 10 13 19 21 28 33 34 32 31 32 31 30 26 29 25 16 16
11 12 11 10 10 11 11 11 11 12 12 13 13 13 12 13 12 12 13 13 12 11 11 11 9 7 6 5 6 9 8 13 18 21 26 28 31 35 33 32 32 32 28 18 15
11 12 12 13 13 14 14 14 14 14 14 14 15 15 15 15 15 15 14 15 14 13 12 11 9 8 7 8 10 10 8 10 14 19 19 22 26 28 31 33 37 36 26 24 19
10 11 13 14 15 15 16 16 15 14 14 15 16 16 15 16 17 16 16 16 16 13 11 12 10 9 11 10 10 10 11 14 20 21 21 21 23 24 27 28 28 29 26 24 20
9 9 10 12 13 14 14 15 15 15 15 15 15 14 15 15 13 14 15 15 14 12 12 12 11 11 10 11 11 12 12 16 17 19 21 20 22 25 25 26 25 28 31 26 24
8 8 8 9 11 12 12 12 13 13 14 15 15 14 15 13 13 13 13 14 14 14 14 13 13 13 14 14 15 16 17 18 21 23 26 25 26 26 29 28 27 29 33 32 29
6 7 6 6 7 8 9 12 13 14 14 16 16 16 14 14 15 15 15 15 15 15 15 17 17 18 20 23 22 24 24 22 24 30 31 31 31 31 31 32 31 30 32 34 34
8 7 7 6 6 6 7 9 10 12 15 16 17 18 18 18 19 20 19 20 20 20 20 20 20 22 28 27 26 28 28 26 26 30 35 34 35 34 33 31 29 31 33 34 35
11 10 10 8 8 9 10 10 11 12 13 15 16 18 20 22 23 24 23 24 23 25 25 24 23 27 27 28 27 26 25 25 26 28 31 32 35 33 32 31 30 34 36 35 35
16 15 14 14 13 12 13 12 13 14 15 16 17 20 19 21 23 25 26 26 27 27 27 26 27 27 27 28 28 27 25 26 26 28 30 29 31 31 31 30 30 30 31 34 34
18 19 18 19 19 18 17 17 16 17 18 20 20 23 19 20 22 25 24 26 26 27 26 25 30 29 29 28 31 27 28 28 28 31 30 31 33 32 31 30 32 34 34 34 34
21 22 23 23 24 25 23 23 22 22 23 23 23 23 24 25 26 28 26 26 28 30 29 28 30 30 29 28 33 30 30 32 32 33 34 33 35 36 34 29 30 33 34 34 35
22 23 25 26 28 28 28 29 29 28 29 29 27 28 27 29 30 30 30 30 31 33 34 30 34 34 32 34 34 34 32 34 34 35 39 37 38 40 37 35 32 30 32 34 35
23 23 24 25 29 30 30 31 32 33 35 35 32 32 32 33 32 32 33 34 34 35 35 34 33 35 35 35 36 36 35 36 38 38 39 39 42 41 39 38 34 33 35 35 35
26 26 25 25 27 29 34 34 35 38 37 37 35 35 35 37 37 36 36 35 36 38 39 39 36 35 37 39 39 36 35 36 41 41 41 40 44 41 40 38 37 37 37 39 40
27 28 29 29 29 29 31 33 39 39 39 39 39 38 39 40 41 41 42 41 40 40 42 42 41 37 38 38 37 36 36 35 39 42 44 44 45 44 42 38 36 37 39 40 40
30 30 32 32 31 31 31 33 35 36 39 40 40 43 42 42 43 43 42 44 44 43 43 45 47 44 43 42 42 38 37 38 38 43 46 47 47 44 42 39 38 40 41 41 41
30 29 29 30 30 29 30 32 35 37 38 39 41 44 44 44 45 45 46 45 44 45 45 46 48 48 49 48 45 43 42 41 40 44 45 49 48 44 43 43 42 41 41 43 43
30 29 29 30 29 30 30 32 33 35 40 42 42 42 43 45 48 47 47 45 47 48 49 51 53 52 51 52 50 48 46 43 42 43 46 49 50 45 44 45 44 41 41 42 41
33 35 34 35 36 36 36 38 38 38 38 42 42 43 43 45 48 48 49 49 50 51 52 51 54 54 53 52 52 49 47 46 46 46 47 47 44 45 46 45 45 43 41 39 40
34 34 34 34 35 36 36 38 39 41 41 42 43 46 46 43 44 47 48 51 51 51 52 53 53 54 54 50 50 51 49 48 47 49 47 46 42 42 44 44 45 43 39 37 39
31 33 34 38 42 43 44 44 43 43 44 44 46 48 50 51 49 48 50 49 48 49 50 52 54 52 52 51 50 49 50 50 50 48 48 45 45 43 43 44 43 38 36 36 39
40 43 45 47 49 50 50 50 51 50 49 49 51 51 53 53 53 52 52 53 52 52 52 51 52 53 53 51 52 52 51 51 52 50 46 46 46 42 44 42 39 37 35 36 39
49 52 54 54 55 55 55 55 56 56 55 56 55 56 56 58 59 58 57 56 56 56 56 56 55 54 54 55 54 56 52 52 51 50 46 49 44 45 41 39 40 42 39 36 38
Wind_Direction
230 231 230 228 230 228 220 218 216 219 226 230 229 223 216 206 202 208 217 224 225 228 233 240 225 222 219 205 191 195 202 199 198 208 219 242 245 255 266 274 289 311 316 302 298
230 230 231 230 229 227 226 220 224 227 231 233 231 227 225 218 214 204 207 211 218 226 227 216 212 215 218 214 195 193 200 201 208 219 218 231 251 257 267 283 296 306 320 297 291
231 227 226 227 224 221 218 217 219 224 229 231 230 231 227 225 220 222 221 202 202 204 207 211 204 197 187 195 199 192 197 206 210 228 233 234 245 258 268 282 295 294 317 304 301
244 240 232 221 217 216 213 215 220 229 234 236 237 236 231 229 226 221 222 216 209 209 209 219 215 208 209 206 200 202 214 221 226 231 236 242 248 258 268 278 289 289 300 293 296
250 247 245 240 233 232 229 228 229 232 237 239 237 235 235 231 229 229 226 225 219 215 219 229 226 218 214 200 198 219 228 237 241 249 250 253 256 256 262 273 280 281 290 294 289
254 251 250 246 244 240 239 236 235 234 237 238 240 241 240 239 236 231 226 226 227 224 229 231 228 220 218 212 205 215 210 221 235 247 253 256 259 263 262 263 267 270 282 291 301
265 258 255 252 251 248 245 244 241 239 237 239 241 244 242 235 230 229 228 228 227 222 218 225 212 201 206 198 190 200 212 221 225 230 232 239 243 245 247 253 261 271 282 285 291
274 269 263 260 255 251 246 243 240 238 237 238 240 243 242 234 224 217 213 212 214 208 194 186 188 198 208 210 210 203 210 231 240 247 249 254 255 254 259 268 276 277 280 283 286
285 281 275 265 261 255 245 238 234 232 233 235 238 232 229 216 206 206 208 207 209 202 200 198 217 222 231 234 237 239 232 237 252 254 260 263 262 261 268 272 275 275 279 285 285
292 289 285 279 268 258 246 240 232 230 230 230 228 224 223 219 217 221 223 227 232 236 232 232 237 249 256 255 258 263 261 250 250 261 259 260 260 261 265 273 275 277 280 284 287
280 278 280 282 274 260 247 234 229 224 224 226 225 224 219 232 231 233 235 239 243 249 251 254 255 260 257 262 264 264 267 269 260 257 267 270 272 273 272 268 268 273 274 277 280
270 269 267 264 263 257 249 238 232 232 233 229 228 229 223 231 240 245 249 251 252 255 259 261 262 261 265 268 269 268 271 274 273 270 270 271 272 278 285 286 279 272 276 275 273
275 264 258 256 257 256 253 247 242 243 241 236 233 237 232 237 243 249 251 254 256 258 260 262 265 263 269 269 268 268 272 273 277 276 279 280 280 282 283 284 283 278 272 275 277
275 269 264 259 255 252 253 251 245 247 244 245 236 243 244 244 247 252 257 258 258 258 262 265 268 271 270 271 270 271 273 273 279 282 283 282 284 283 280 280 280 281 278 275 273
286 278 268 263 261 258 254 256 255 251 254 248 248 249 252 252 252 255 256 259 261 265 266 266 268 270 272 270 270 273 274 279 281 281 282 284 282 280 276 272 271 272 273 273 271
291 286 281 272 265 263 260 259 258 258 258 258 255 256 261 260 259 260 259 259 261 264 268 267 269 269 268 270 272 275 275 275 278 279 280 284 282 280 281 286 282 275 272 270 269
295 290 286 280 272 267 265 264 263 261 261 260 260 260 260 262 262 263 264 267 269 269 271 265 264 268 271 271 273 274 275 277 276 278 283 282 281 283 286 289 288 284 280 277 273
295 293 289 283 276 272 266 262 262 262 264 265 266 265 263 264 266 266 265 265 267 266 267 267 265 266 268 271 271 272 275 276 280 280 279 279 279 283 284 290 291 288 286 285 284
294 292 287 284 280 275 269 266 263 263 265 266 265 263 263 263 265 266 267 267 265 265 266 268 266 265 265 268 271 273 275 275 276 279 282 283 283 285 287 289 291 288 286 287 287
296 293 288 283 280 277 274 270 268 265 263 262 264 265 264 262 263 264 266 268 271 271 271 271 271 270 270 270 271 274 274 274 274 276 279 283 284 286 289 289 291 291 291 289 287
296 294 290 285 284 283 280 275 272 271 268 265 263 261 262 263 264 264 264 265 268 272 274 274 273 275 275 275 274 272 271 272 273 276 282 283 282 289 294 293 292 291 291 291 292
297 293 291 290 288 285 282 280 279 276 273 269 267 266 264 263 264 264 265 266 265 263 266 268 271 273 275 277 277 277 277 277 277 280 279 281 284 293 294 292 293 294 292 291 292
293 296 294 292 290 288 285 282 279 276 274 275 274 269 265 263 263 261 262 261 262 264 265 267 269 272 271 272 276 278 278 277 278 277 278 282 291 294 293 293 294 292 290 288 287
293 291 291 291 291 288 285 283 281 280 274 273 272 272 271 266 263 263 261 259 258 260 262 263 263 265 268 269 269 271 273 274 274 274 279 279 284 283 286 288 286 288 289 287 286
295 294 293 295 295 293 289 286 284 281 280 277 272 269 270 271 269 265 265 264 262 261 259 261 264 265 265 266 265 266 269 271 272 275 274 280 280 281 282 281 283 286 285 284 282
298 299 298 297 296 293 290 287 284 282 279 275 274 274 273 270 268 266 264 263 264 265 263 261 260 260 262 263 265 266 267 268 271 274 278 278 279 283 279 282 283 285 283 279 279
298 297 298 298 297 295 289 286 284 282 280 278 275 272 270 269 270 270 268 266 265 263 261 261 260 258 259 259 260 261 265 268 270 272 276 276 279 278 281 281 281 282 283 280 278
Height
5873 5874 5875 5876 5877 5878 5879 5879 5880 5881 5882 5882 5882 5882 5883 5884 5884 5885 5885 5887 5888 5889 5890 5892 5893 5895 5897 5899 5901 5902 5906 5907 5909 5910 5910 5909 5911 5913 5914 5915 5917 5917 5917 5916 5915
5872 5873 5874 5875 5875 5876 5877 5878 5879 5880 5880 5881 5881 5881 5882 5883 5883 5884 5885 5886 5887 5889 5890 5891 5892 5894 5896 5898 5900 5901 5903 5906 5906 5906 5908 5908 5908 5910 5913 5914 5915 5916 5914 5913 5913
5871 5872 5872 5873 5874 5875 5875 5876 5877 5878 5878 5879 5879 5880 5881 5881 5882 5883 5884 5885 5886 5888 5889 5890 5891 5892 5893 5895 5897 5899 5900 5901 5902 5902 5906 5908 5908 5908 5909 5911 5911 5912 5912 5911 5911
5870 5870 5871 5872 5873 5873 5874 5875 5876 5876 5877 5877 5878 5878 5879 5880 5883 5882 5883 5884 5885 5886 5888 5889 5890 5891 5892 5894 5895 5896 5897 5899 5900 5902 5905 5906 5906 5906 5906 5907 5908 5908 5908 5908 5908
5868 5868 5869 5870 5871 5872 5873 5873 5874 5875 5875 5875 5876 5877 5878 5879 5880 5881 5882 5882 5883 5885 5886 5888 5889 5890 5892 5894 5895 5896 5897 5899 5900 5901 5902 5903 5903 5903 5903 5904 5903 5902 5903 5905 5906
5866 5866 5867 5868 5869 5869 5870 5871 5872 5872 5873 5873 5874 5875 5877 5878 5878 5879 5880 5880 5882 5883 5885 5887 5888 5889 5891 5893 5894 5895 5896 5897 5898 5898 5899 5899 5900 5901 5900 5898 5898 5898 5901 5902 5903
5864 5864 5864 5865 5866 5867 5868 5868 5869 5870 5870 5871 5872 5872 5874 5875 5875 5876 5877 5878 5880 5881 5883 5885 5886 5887 5888 5890 5892 5892 5893 5893 5893 5893 5893 5893 5895 5895 5893 5894 5894 5893 5896 5899 5900
5862 5862 5862 5863 5863 5864 5865 5866 5866 5867 5868 5868 5869 5870 5870 5871 5873 5874 5874 5876 5877 5880 5882 5883 5885 5886 5887 5889 5890 5890 5891 5890 5890 5890 5890 5891 5892 5891 5891 5892 5893 5891 5889 5893 5895
5861 5861 5860 5861 5861 5861 5862 5863 5864 5864 5865 5866 5867 5868 5868 5870 5871 5872 5874 5875 5876 5878 5880 5882 5883 5884 5885 5886 5887 5887 5888 5888 5888 5887 5886 5887 5887 5887 5886 5888 5889 5888 5884 5885 5887
5860 5860 5860 5859 5859 5859 5860 5860 5861 5862 5863 5863 5864 5867 5868 5869 5870 5871 5872 5874 5874 5876 5878 5880 5881 5881 5882 5881 5882 5882 5884 5885 5885 5881 5880 5880 5881 5882 5882 5882 5881 5882 5881 5880 5880
5859 5859 5859 5859 5858 5858 5858 5858 5860 5861 5859 5860 5862 5863 5865 5866 5867 5869 5870 5871 5872 5873 5874 5875 5877 5877 5875 5876 5877 5876 5877 5879 5879 5878 5873 5873 5873 5873 5875 5877 5877 5876 5875 5875 5875
5858 5858 5857 5858 5857 5857 5857 5857 5858 5859 5859 5858 5859 5860 5862 5863 5864 5865 5866 5868 5868 5868 5869 5871 5871 5870 5870 5870 5870 5870 5871 5872 5872 5870 5869 5869 5867 5867 5867 5868 5870 5869 5869 5869 5869
5855 5855 5855 5855 5855 5855 5855 5856 5855 5856 5856 5856 5857 5857 5859 5861 5861 5861 5862 5862 5862 5863 5864 5864 5864 5864 5864 5864 5863 5863 5865 5864 5864 5863 5861 5862 5862 5862 5861 5861 5860 5861 5861 5860 5860
5851 5851 5852 5851 5853 5851 5852 5852 5852 5852 5853 5854 5854 5854 5856 5856 5856 5856 5856 5857 5857 5856 5858 5859 5855 5858 5858 5858 5856 5858 5858 5858 5857 5856 5856 5855 5855 5855 5855 5855 5853 5851 5851 5851 5851
5847 5847 5846 5847 5846 5847 5848 5847 5848 5848 5848 5849 5849 5849 5849 5851 5851 5850 5851 5850 5850 5850 5853 5853 5851 5851 5851 5852 5848 5852 5852 5850 5849 5848 5847 5849 5848 5846 5847 5849 5847 5845 5843 5842 5841
5842 5841 5840 5841 5841 5841 5841 5841 5842 5843 5840 5841 5842 5842 5843 5842 5842 5842 5844 5844 5844 5843 5843 5846 5843 5844 5844 5844 5843 5843 5844 5843 5841 5840 5839 5840 5839 5837 5838 5839 5839 5839 5835 5832 5832
5836 5835 5835 5834 5834 5833 5834 5834 5835 5833 5834 5833 5835 5836 5836 5835 5835 5835 5835 5835 5836 5835 5835 5835 5836 5835 5836 5836 5836 5836 5835 5834 5832 5832 5831 5830 5828 5829 5830 5829 5829 5827 5825 5824 5823
5831 5829 5828 5827 5826 5825 5825 5826 5826 5824 5825 5826 5827 5828 5828 5827 5827 5826 5825 5827 5826 5825 5824 5825 5829 5828 5828 5827 5828 5828 5828 5826 5821 5821 5822 5821 5818 5819 5819 5820 5818 5817 5815 5812 5811
5824 5822 5821 5819 5818 5818 5817 5816 5815 5816 5816 5816 5816 5816 5817 5818 5818 5817 5816 5817 5816 5817 5816 5816 5818 5819 5819 5818 5819 5819 5818 5818 5814 5812 5809 5810 5810 5810 5809 5809 5808 5806 5804 5801 5800
5817 5815 5813 5811 5810 5809 5808 5807 5805 5805 5805 5805 5804 5803 5805 5806 5806 5806 5806 5805 5804 5804 5804 5804 5804 5806 5806 5808 5808 5809 5809 5808 5807 5803 5800 5799 5799 5799 5799 5799 5797 5794 5792 5791 5790
5810 5808 5805 5803 5801 5800 5799 5797 5795 5794 5794 5793 5793 5791 5792 5792 5793 5793 5793 5794 5793 5793 5792 5791 5791 5793 5792 5794 5796 5796 5797 5798 5797 5794 5791 5788 5788 5789 5789 5787 5786 5784 5781 5778 5776
5802 5802 5799 5796 5796 5792 5791 5788 5787 5784 5781 5781 5781 5781 5781 5781 5779 5779 5780 5782 5781 5781 5780 5778 5777 5778 5781 5779 5780 5782 5784 5786 5784 5785 5781 5777 5777 5780 5778 5775 5774 5773 5771 5768 5765
5795 5791 5790 5787 5784 5783 5780 5778 5776 5775 5773 5769 5767 5767 5768 5768 5767 5767 5767 5768 5767 5767 5767 5769 5766 5765 5767 5770 5769 5771 5771 5772 5772 5771 5769 5769 5771 5767 5765 5763 5763 5762 5761 5759 5757
5787 5784 5781 5778 5775 5772 5770 5767 5765 5762 5761 5759 5756 5753 5753 5754 5753 5751 5752 5752 5754 5754 5753 5751 5753 5753 5754 5757 5756 5757 5759 5759 5759 5757 5759 5761 5763 5761 5757 5756 5753 5751 5750 5748 5747
5777 5774 5772 5768 5765 5761 5758 5756 5753 5750 5747 5745 5743 5741 5739 5738 5738 5737 5736 5737 5738 5738 5738 5737 5737 5738 5741 5742 5742 5743 5745 5744 5744 5747 5747 5752 5750 5751 5748 5745 5743 5743 5741 5739 5736
5766 5763 5760 5756 5751 5747 5742 5740 5737 5735 5732 5729 5726 5725 5723 5722 5721 5721 5721 5722 5722 5722 5721 5721 5723 5721 5724 5726 5725 5727 5731 5730 5731 5734 5737 5737 5737 5738 5734 5734 5733 5731 5730 5728 5725
5753 5749 5745 5741 5735 5730 5726 5722 5718 5716 5714 5710 5709 5708 5705 5702 5702 5704 5704 5705 5706 5706 5705 5705 5706 5707 5711 5710 5709 5712 5718 5718 5720 5722 5724 5723 5727 5723 5724 5724 5722 5720 5719 5718 5716